DW0088 Weather Reports


time (UTC)temp
C
wind
direction
speed
KPH
gust
KPH
rain 1hr
cm
rain 24hr
cm
rain mn
cm
humidity
%
barometer
mb
20260507072940 11 29 8.0 14.5 0.00 0.03 0.00 83 1014.5
20260507071940 11 41 8.0 14.5 0.00 0.03 0.00 83 1014.5
20260507070941 10 15 6.4 11.3 0.00 0.03 0.00 84 1014.5
20260507065940 10 14 6.4 9.7 0.00 0.03 0.00 84 1014.5
20260507064939 10 31 8.0 17.7 0.00 0.03 0.00 85 1014.5
20260507063941 10 22 6.4 11.3 0.00 0.03 0.00 86 1014.5
20260507062940 10 328 6.4 11.3 0.00 0.03 0.00 87 1014.4
20260507061940 9 342 8.0 11.3 0.00 0.03 0.00 88 1014.4
20260507055940 8 328 6.4 11.3 0.00 0.03 0.00 89 1014.0
20260507054941 8 357 6.4 11.3 0.00 0.03 0.00 89 1014.0
20260507053940 8 3 6.4 11.3 0.00 0.03 0.00 89 1014.0
20260507052940 8 7 8.0 14.5 0.00 0.03 0.00 90 1013.9
20260507051940 8 4 6.4 11.3 0.00 0.03 0.00 91 1013.9
20260507050940 8 8 6.4 11.3 0.00 0.03 0.00 92 1013.8
20260507045941 8 341 6.4 9.7 0.00 0.03 0.00 93 1013.5
20260507043940 8 327 4.8 8.0 0.00 0.03 0.00 93 1013.5
20260507042941 8 344 4.8 8.0 0.00 0.05 0.00 93 1013.4
20260507041940 8 346 4.8 8.0 0.00 0.05 0.00 93 1013.4
20260507040940 8 305 4.8 8.0 0.00 0.05 0.00 93 1013.1
20260507035940 8 321 3.2 4.8 0.00 0.05 0.00 93 1013.0
20260507034940 8 311 3.2 4.8 0.00 0.05 0.00 93 1013.0
20260507032941 8 290 1.6 3.2 0.00 0.05 0.00 92 1012.9
20260507031941 8 291 1.6 4.8 0.00 0.05 0.00 92 1012.9
20260507030940 8 281 0.0 4.8 0.00 0.05 0.00 92 1012.9
20260507025941 8 288 0.0 1.6 0.00 0.05 0.00 92 1012.9
20260507024941 8 288 1.6 4.8 0.00 0.05 0.00 92 1012.9
20260507023940 8 282 1.6 4.8 0.00 0.05 0.00 91 1012.8
20260507022941 8 276 0.0 3.2 0.00 0.05 0.00 91 1012.6
20260507020941 8 288 3.2 6.4 0.00 0.05 0.00 90 1012.5
20260507014940 9 338 4.8 8.0 0.00 0.08 0.00 89 1012.4
20260507013941 9 326 6.4 9.7 0.00 0.08 0.00 89 1012.4
20260507012941 9 297 6.4 9.7 0.00 0.10 0.00 89 1012.4
20260507010941 9 268 3.2 4.8 0.00 0.13 0.00 88 1012.3
20260507005941 9 258 1.6 4.8 0.00 0.13 0.00 88 1012.2
20260507004940 9 256 3.2 6.4 0.00 0.15 0.00 88 1012.2
20260507002942 9 328 3.2 4.8 0.00 0.15 0.00 89 1012.0
20260507001941 9 303 4.8 6.4 0.00 0.15 0.00 89 1012.0
20260507000941 9 285 3.2 6.4 0.00 0.15 0.00 89 1011.9
20260506234942 9 273 1.6 4.8 0.00 0.15 0.00 89 1012.0
20260506233941 9 270 3.2 4.8 0.00 0.15 0.00 88 1011.9
20260506232941 9 259 3.2 4.8 0.00 0.15 0.00 88 1011.9
20260506231941 9 252 1.6 3.2 0.00 0.15 0.00 88 1011.9
20260506230940 9 265 1.6 3.2 0.00 0.15 0.00 89 1011.8
20260506225941 9 283 0.0 1.6 0.00 0.15 0.00 88 1011.8
20260506224941 9 285 1.6 4.8 0.00 0.15 0.00 88 1011.8
20260506223941 9 287 3.2 4.8 0.00 0.15 0.00 88 1011.7
20260506222941 9 298 3.2 6.4 0.00 0.15 0.00 88 1011.6
20260506221941 9 6 1.6 4.8 0.00 0.15 0.00 88 1011.6
20260506220941 9 6 1.6 4.8 0.00 0.15 0.00 87 1011.5
20260506215946 9 351 4.8 6.4 0.00 0.15 0.00 88 1011.4
20260506212942 10 293 6.4 8.0 0.00 0.15 0.15 87 1011.3
20260506211942 10 9 3.2 6.4 0.00 0.15 0.15 86 1011.3
20260506210942 10 13 3.2 6.4 0.00 0.15 0.15 84 1011.3
20260506205942 10 21 3.2 8.0 0.00 0.15 0.15 84 1011.3
20260506204941 10 19 3.2 6.4 0.00 0.15 0.15 84 1011.3
20260506203942 10 25 4.8 8.0 0.00 0.15 0.15 85 1011.2
20260506202942 10 23 3.2 8.0 0.00 0.15 0.15 85 1011.1
20260506201942 10 23 3.2 8.0 0.00 0.15 0.15 85 1011.1
20260506195942 10 3 3.2 6.4 0.00 0.15 0.15 86 1010.8
20260506194941 10 17 3.2 6.4 0.00 0.15 0.15 87 1010.8
20260506193941 10 24 1.6 6.4 0.00 0.15 0.15 87 1010.8
20260506192941 10 26 0.0 4.8 0.00 0.15 0.15 86 1010.6
20260506191942 10 25 3.2 6.4 0.00 0.15 0.15 85 1010.6
20260506190942 10 32 1.6 4.8 0.00 0.15 0.15 85 1010.3
20260506185942 10 37 3.2 6.4 0.00 0.15 0.15 85 1010.3
20260506184942 10 29 3.2 8.0 0.00 0.15 0.15 85 1010.3
20260506183943 10 38 6.4 12.9 0.00 0.15 0.15 84 1010.2
20260506181941 10 30 11.3 19.3 0.00 0.15 0.15 84 1009.9
20260506180941 10 26 6.4 11.3 0.00 0.15 0.15 85 1009.8
20260506175942 10 32 6.4 11.3 0.00 0.15 0.15 86 1009.7
20260506174942 10 40 6.4 11.3 0.00 0.15 0.15 86 1009.7
20260506173942 10 43 9.7 14.5 0.00 0.15 0.15 85 1009.4
20260506172942 10 45 9.7 14.5 0.00 0.15 0.15 86 1009.3
20260506171941 10 36 12.9 19.3 0.00 0.15 0.15 85 1009.3
20260506164942 10 32 9.7 16.1 0.00 0.15 0.15 85 1009.0
20260506163941 10 23 9.7 17.7 0.00 0.15 0.15 84 1009.0
20260506162942 10 27 11.3 20.9 0.00 0.15 0.15 83 1009.1
20260506161942 11 22 11.3 22.5 0.00 0.15 0.15 82 1009.1
20260506160942 11 30 12.9 22.5 0.00 0.15 0.15 82 1009.0
20260506155942 11 26 11.3 19.3 0.00 0.15 0.15 81 1008.9
20260506154943 11 12 11.3 17.7 0.00 0.15 0.15 79 1008.9
20260506153944 11 11 11.3 20.9 0.00 0.15 0.15 78 1008.8
20260506152942 11 357 12.9 20.9 0.00 0.15 0.15 78 1008.7
20260506151942 11 345 14.5 24.1 0.00 0.15 0.15 78 1008.7
20260506150942 11 10 9.7 17.7 0.00 0.15 0.15 77 1008.7
20260506145943 12 355 12.9 25.7 0.00 0.15 0.15 77 1008.7
20260506144942 12 16 11.3 19.3 0.00 0.15 0.15 75 1008.7
20260506143942 12 328 11.3 19.3 0.00 0.15 0.15 75 1008.7
20260506142942 12 12 9.7 14.5 0.00 0.15 0.15 75 1008.6
20260506141943 12 295 11.3 16.1 0.00 0.15 0.15 75 1008.6
20260506140942 12 357 11.3 19.3 0.00 0.15 0.15 74 1008.6
20260506135942 12 356 11.3 17.7 0.00 0.15 0.15 77 1008.6
20260506134942 11 41 11.3 20.9 0.00 0.15 0.15 75 1008.6
20260506133942 11 354 12.9 25.7 0.00 0.15 0.15 75 1008.6
20260506131942 11 25 11.3 19.3 0.00 0.15 0.15 75 1008.5
20260506130943 11 21 11.3 20.9 0.00 0.15 0.15 77 1008.5
20260506125943 11 27 12.9 25.7 0.00 0.15 0.15 77 1008.3
20260506124942 11 22 11.3 17.7 0.00 0.15 0.15 79 1008.3
20260506123944 11 30 12.9 22.5 0.00 0.15 0.15 77 1008.3
20260506122942 11 25 12.9 25.7 0.00 0.15 0.15 77 1008.2
20260506121943 11 19 12.9 19.3 0.00 0.15 0.15 77 1008.2
20260506120943 12 13 11.3 22.5 0.00 0.15 0.15 76 1008.1
20260506115943 12 14 9.7 19.3 0.00 0.15 0.15 77 1008.1
20260506114943 12 17 11.3 19.3 0.00 0.15 0.15 77 1008.1
20260506113943 12 359 12.9 22.5 0.00 0.15 0.15 80 1008.0
20260506112943 12 33 11.3 20.9 0.00 0.15 0.15 80 1008.0
20260506111942 12 42 16.1 20.9 0.00 0.15 0.15 82 1008.0
20260506105943 12 33 12.9 20.9 0.00 0.15 0.15 83 1008.1
20260506104943 11 32 14.5 22.5 0.00 0.15 0.15 84 1008.1
20260506103943 12 27 11.3 20.9 0.00 0.15 0.15 86 1007.8
20260506102943 11 29 12.9 19.3 0.00 0.15 0.15 86 1007.7
20260506101943 11 37 14.5 22.5 0.00 0.15 0.15 86 1007.7
20260506100943 11 31 11.3 19.3 0.00 0.15 0.15 87 1007.7
20260506095943 11 31 9.7 19.3 0.00 0.15 0.15 86 1007.6
20260506094943 11 12 11.3 20.9 0.03 0.15 0.15 86 1007.6
20260506092944 11 357 9.7 17.7 0.03 0.15 0.15 88 1007.4
20260506091943 11 356 11.3 20.9 0.03 0.15 0.15 88 1007.4
20260506090943 11 349 14.5 27.4 0.03 0.15 0.15 88 1007.3
20260506085943 11 351 11.3 17.7 0.03 0.15 0.15 91 1007.2
20260506084944 11 27 9.7 16.1 0.00 0.15 0.13 91 1007.2
20260506083943 10 8 11.3 16.1 0.00 0.15 0.13 92 1007.1
20260506082943 10 358 11.3 17.7 0.00 0.15 0.13 92 1007.1
20260506080943 10 344 9.7 16.1 0.00 0.15 0.13 94 1007.1